Regional Weather Roundup
Issued by NWS

Home | Current Version | Previous Version | Text Only | Print | Product List | Glossary On
Versions: 1 2 3 4 5 6 7 8 9 10 11 12 13 14 15 16 17 18 19 20 21 22 23 24 25 26 27 28 29 30 31 32 33 34 35 36 37 38 39 40 41 42 43 44 45 46 47 48 49 50
000
ASUS42 KFFC 250203
RWRGA
WEATHER ROUNDUP FOR GEORGIA
NATIONAL WEATHER SERVICE PEACHTREE CITY GA
1000 PM EDT THU JUL 24 2014

NOTE: "FAIR" INDICATES FEW OR NO CLOUDS BELOW 12,000 FEET WITH NO
SIGNIFICANT WEATHER AND/OR OBSTRUCTIONS TO VISIBILITY.

* = USE WITH CAUTION. THE STATIONS MARKED WITH AN ASTERISK MAY NOT
REPORT WEATHER SUCH AS PRECIPITATION, FOG, OR THUNDER AND ARE NOT
QUALITY CONTROLLED BY NWS.

THE REMARK "TC" DENOTES TEMPERATURE READING IN DEGREES CELSIUS.

GAZ001>058-250300-
NORTH GEORGIA

CITY           SKY/WX    TMP DP  RH WIND       PRES   REMARKS
ATLANTA        MOCLDY    73  70  90 SW3       29.98R
ATHENS         MOCLDY    77  71  82 SW5       29.95R
CHAMBLEE       PTCLDY    74  70  87 SW5       29.97R
PEACHTREE CITY CLOUDY    73  70  90 VRB3      29.99R
ROME           CLEAR     76  70  82 W3        29.96R
WEST ATLANTA   PTCLDY    75  71  87 SW3       29.97R
GAINESVILLE    PTCLDY    76  72  87 W7        29.98R
CARTERSVILLE   PTCLDY    75  71  87 CALM      29.97R


CITY           SKY/WX    TMP DP  RH WIND       PRES   REMARKS
DALTON*        CLOUDY    79  70  73 NW7       29.97R
MARIETTA       PTCLDY    74  73  98 CALM      29.98R
KENNESAW*      MOCLDY    75  72  88 SW12      29.98R
$$

GAZ059>098-102>109-250300-
CENTRAL GEORGIA

CITY           SKY/WX    TMP DP  RH WIND       PRES   REMARKS
AUGUSTA-BUSH   MOCLDY    82  70  66 W3        29.93R
AUGUSTA-DANIEL PTCLDY    83  70  64 SW3       29.94R
COLUMBUS       PTCLDY    83  70  64 W5        29.96R
MACON          PTCLDY    76  73  91 CALM      29.96R
ROBINS AFB     CLEAR     79  73  81 CALM      29.95R


CITY           SKY/WX    TMP DP  RH WIND       PRES   REMARKS
LAGRANGE*      PTCLDY    79  75  88 CALM      29.99S
SYLVANIA*      PTCLDY    82  74  77 CALM      29.96R
MILLEDGEVILLE* MOCLDY    64  64 100 CALM      29.96R
$$

GAZ099>101-110>166-250300-
SOUTH GEORGIA

CITY           SKY/WX    TMP DP  RH WIND       PRES   REMARKS
SAVANNAH       PTCLDY    85  71  63 SW7       29.95R HX  90
VALDOSTA       PTCLDY    79  72  79 CALM      30.01R
ALMA           MOCLDY    79  72  79 SW7       29.99R
ST SIMONS      MOCLDY    85  79  82 S7        29.97R HX  98
FT STEWART     PTCLDY    84  71  65 SW5       29.95R
ALBANY         PTCLDY    81  72  74 S6        29.99R
HUNTER AFB     CLEAR     85  73  68 S6        29.94R HX  91
MOODY AFB      CLEAR     80  80  99 SW9       30.00R
BRUNSWICK      MOCLDY    86  70  58 CALM      29.98R HX  90


CITY           SKY/WX    TMP DP  RH WIND       PRES   REMARKS
BAINBRIDGE*    PTCLDY    81  77  89 S6        29.99S
MOULTRIE*      PTCLDY    79  75  89 CALM      30.01R
VIDALIA*         N/A     82  73  74 SW8       29.97R
WAYCROSS*      MOCLDY    80  79  96 CALM      30.00R
DOUGLAS*       PTCLDY    79  75  89 SW3       30.01R
$$



USA.gov is the U.S. government's official web portal to all federal, state and local government web resources and services.